User: anonymous
Location: Unspecified
(0.0000°N, 0.0000°E)
Time: 22:09:27
(UTC+02:00)
Language:

Iridium 33 - Orbit

View from above orbital plane
View from above orbital plane
View from above satellite
View from above satellite

Ground track
Ground track

The orbit data is extracted from the following two-line orbital elements,

1 24946U 97051C   14264.28443071  .00000249  00000-0  83436-4 0   885
2 24946 086.3920 345.1449 0006076 250.1012 169.0807 14.33186005890802
Epoch (UTC): 21 September 2014 06:49:34
Eccentricity: 0.0006076
inclination: 86.3920°
perigee height: 777 km
apogee height: 785 km
right ascension of ascending node: 345.1449°
argument of perigee: 250.1012°
revolutions per day: 14.33186005
mean anomaly at epoch: 169.0807°
orbit number at epoch: 89080

The dashed part of the orbit path shows where the satellite is in the earth's shadow,  

DLR